User: anonymous   Login
Location: Mentone
(34.5413°N, 85.5351°W)
Time: 23:22:16
(UTC-05:00)
Language:

AO-Echo - Orbit

View from above orbital plane
View from above orbital plane
View from above satellite
View from above satellite

Ground track
Ground track

The orbit data is extracted from the following two-line orbital elements,

1 28375U 04025K   15216.40746964  .00000084  00000-0  37952-4 0  9993
2 28375 098.2941 155.4737 0082571 183.0980 176.9710 14.41683257583439
Epoch (UTC): 04 August 2015 09:46:45
Eccentricity: 0.0082571
inclination: 98.2941°
perigee height: 694 km
apogee height: 812 km
right ascension of ascending node: 155.4737°
argument of perigee: 183.0980°
revolutions per day: 14.41683257
mean anomaly at epoch: 176.9710°
orbit number at epoch: 58343

The dashed part of the orbit path shows where the satellite is in the earth's shadow,  

DLR